SL-19 DEB, 23479

Orbit data source: Space-Track

SL-19 DEB, 23479 is space debris in LEO originally from a launch on Mon, 26 Dec 1994 UTC launched from the Tyuratam Missile And Space Complex (TTMTR). Debris objects in space refer to the collection of defunct objects orbiting the Earth. Examples of debris include non-operational satellites, rocket bodies, and fragments generated from explosions, collisions, or faulty payload assembly.

Loading next visibility...
Identifier
23479, 1994-085C
Orbit
LEO
Country
Flag of CISCIS
Related business
Manufacturer
Unknown
Mission
Spacecraft
Bus & Motor
Unknown
Mass
Unknown
Launch date (UTC)
1994-12-26 (31 years ago)
Launch vehicle
Unknown
Launch site
Tyuratam Missile And Space Complex (TTMTR)
Object type
Payload
Rocket body
Debris
Shape & HBR
Unknown shape, 0.3 m
Radar Cross Section
Medium (>0.1 m² and <1 m²)

Expand to show TLE details & history
Last TLE update: 8 hours ago

TLE from 8 hours ago
0 SL-19 DEB
1 23479U 94085C   26062.50393818 -.00000194  00000-0 -35288-2 0  9998
2 23479  65.0452  41.5308 0104878   8.3743  78.9794 11.45287747301119
Epoch: 2026-03-03T12:05Z
TLE epoch observation values (Epoch: 2026-03-03T12:05:40.258Z)
Latitude
65.10745°
Longitude
145.36146°
Altitude
1,930.062 km
Speed
6.94 km/s
True Right ascension
08h 32m 14s
True Declination
64° 59' 40"
Sunlit
Object was in daylight at epoch
Visualization orbit readout
Latitude
Unknown
Longitude
Unknown
Altitude
Unknown
Speed
Unknown
Apparent Right ascension
Unknown
Apparent Declination
Unknown
Sunlit
N/A
Visualization observer readout
Local Sidereal Time
23:36:32
Azimuth
Unknown
Elevation
Unknown
Doppler factor
Unknown
Orbital elements
Apogee altitude
2,021.47 km
Perigee altitude
1,847.112 km
Semi-major axis
8,312.428 km
Eccentricity
0.01049
Inclination
65.0452°
RAAN
41.5308°
Arg. of periapsis
8.3743°
True anomaly
80.16193°
Mean anomaly
78.9794°
Eccentric anomaly
79.57038°
Mean motion
2.86386 °/min
Orbital period
125.7 mins
BSTAR
-0.0035288
Loading maneuver chart data...
Computing Atmospheric mass density...
Loading historical data...
Loading historical data...
Loading historical data...
Loading historical data...
Loading historical data...
Loading historical data...
Loading historical data...

Documentation

Showing up to 5 results
|